Regional Weather Roundup
Issued by NWS

Home | Current Version | Previous Version | Text Only | Print | Product List | Glossary On
Versions: 1 2 3 4 5 6 7 8 9 10 11 12 13 14 15 16 17 18 19 20 21 22 23 24 25 26 27 28 29 30 31 32 33 34 35 36 37 38 39 40 41 42 43 44 45 46 47 48 49 50
000
ASUS44 KJAN 232310
RWRMS

MISSISSIPPI HOURLY WEATHER ROUNDUP
NATIONAL WEATHER SERVICE JACKSON MS
500 PM CST THU NOV 23 2017

NOTE: "FAIR: INDICATES FEW OR NO CLOUDS BELOW 12,000 FEET WITH NO
SIGNIFICANT WEATHER AND/OR OBSTRUCTIONS TO VISIBILITY.

MSZ001>002-007>008-010>013-018>021-025>028-034>036-240000-
NORTHWEST MISSISSIPPI

CITY           SKY/WX    TMP DP  RH WIND       PRES   REMARKS
BATESVILLE     FAIR      50  22  33 CALM      30.07S
CLARKSDALE       N/A     52  28  40 NW3       30.07F
CLEVELAND      FAIR      52  28  39 CALM      30.07S
GREENWOOD      CLEAR     52  24  33 NW3       30.06S
GREENVILLE     CLEAR     51  22  31 N5        30.06S
OLIVE BRANCH   PTCLDY   N/A N/A N/A CALM      30.02F
OXFORD         FAIR      50  21  32 NW3       30.07S
TUNICA           N/A    N/A N/A N/A CALM      30.07F
WINONA         FAIR      48  28  46 CALM      30.05S
$$

MSZ003>006-009-014>017-022>024-029>033-037>039-240000-
NORTHEAST MISSISSIPPI

CITY           SKY/WX    TMP DP  RH WIND       PRES   REMARKS
ABERDEEN       FAIR      50  30  46 CALM      30.05S
COLUMBUS AFB   CLEAR     52  28  39 NW5       30.03S
CORINTH        FAIR      50  19  29 CALM      30.04S
GOLDN TRIANGLE CLEAR     50  23  34 N6        30.05R
STARKVILLE     FAIR      50  27  40 CALM      30.05S
TUPELO         CLEAR     52  19  27 W3        30.04F
$$

MSZ040-058-240000-
CENTRAL MISSISSIPPI

CITY           SKY/WX    TMP DP  RH WIND       PRES   REMARKS
JACKSON INTL   CLEAR     52  25  35 N8        30.04R
JACKSON HAWKNS CLEAR     54  23  30 VRB3      30.05R
MADISON        FAIR      50  25  37 CALM      30.05R
MERIDIAN KEY   CLEAR     49  33  54 N5        30.03R
MERIDIAN NAS   CLEAR     54  23  30 N6        30.04R
RAYMOND        FAIR      54  43  66 NW5       30.05R
VICKSBURG VKS  CLEAR     52  23  32 CALM      30.08R
$$

MSZ059>079-240000-
SOUTH MISSISSIPPI

CITY           SKY/WX    TMP DP  RH WIND       PRES   REMARKS
COLUMBIA       FAIR      52  34  50 CALM      30.06S
HATTIESBURG    CLEAR     55  32  41 CALM      30.03R
LAUREL         FAIR      53  28  37 N3        30.02S
MCCOMB         CLEAR     54  29  38 CALM      30.03R
NATCHEZ        CLEAR     54  25  32 N3        30.06S
PINE BELT      CLEAR     49  33  54 NW3       30.03R
$$

MSZ080>082-240000-
COASTAL MISSISSIPPI

CITY           SKY/WX    TMP DP  RH WIND       PRES   REMARKS
BAY ST LOUIS   CLEAR     63  36  36 N3        30.01R
BILOXI         CLEAR     58  33  40 N7        29.99S
PASCAGOULA     CLEAR     55  33  43 N5        29.99R
GULFPORT       CLEAR     57  33  40 N8        29.99S
$$

LAZ007>009-015>016-023>026-240000-
NORTHEAST LOUISIANA

CITY           SKY/WX    TMP DP  RH WIND       PRES   REMARKS
BASTROP        FAIR      52  31  44 CALM      30.08S
TALLULAH/VBURG CLEAR     52  25  35 NW5       30.07R
VIDALIA          N/A    N/A N/A N/A MISG      30.05S
$$



USA.gov is the U.S. government's official web portal to all federal, state and local government web resources and services.